Date String (YYYY-MM-DD hh:mm:ss) UTC,Instrument flags,Ambient pressure (hPa),Sample flow (lpm),Bypass flow (lpm),Sample temperature (°C),Ambient temperature (°C),ASC tube jacket temperature (°C),LED temperature (°C),Box temperature (°C),Sample RH (%),Span deviation,Mass concentration (μg/m³),Mass concentration (μg/m³),Mass concentration (μg/m³)
DateTimeUTC,F1_M11,P_M11,Q1_M11,Q2_M11,T1_M11,T2_M11,T3_M11,T4_M11,T5_M11,U1_M11,ZSPAN_M11,X0_M11,X2_M11,X1_M11
2023-01-04 16:00:00,,0822.1,5.00,0.00,22.5,23.0,00.0,31.1,24.5,10.1,-001.3,0023.87,0019.89,0019.68
2023-01-04 16:01:00,,0822.0,5.00,0.00,22.6,22.9,00.0,31.1,24.6,10.1,-001.3,0023.89,0019.95,0019.78
2023-01-04 16:02:00,,0822.0,4.99,0.00,22.6,22.5,00.0,31.2,24.5,10.0,-001.4,0023.70,0019.73,0019.55
2023-01-04 16:03:00,,0821.9,5.00,0.00,22.6,22.2,00.0,31.2,24.4,09.9,-001.2,0023.48,0019.56,0019.39
2023-01-04 16:04:00,,0822.1,5.00,0.00,22.6,22.0,00.0,31.2,24.4,09.8,-000.8,0023.05,0019.15,0019.00
2023-01-04 16:05:00,,0822.0,5.00,0.00,22.6,21.8,00.0,31.3,24.4,09.5,-000.8,0022.49,0018.63,0018.48
2023-01-04 16:06:00,,0821.9,5.00,0.00,22.6,21.6,00.0,31.3,24.3,09.6,-000.7,0022.17,0018.29,0018.12
2023-01-04 16:07:00,,0822.0,5.00,0.00,22.6,21.5,00.0,31.3,24.3,09.2,-000.7,0021.52,0017.65,0017.49
2023-01-04 16:08:00,,0822.0,5.02,0.00,22.6,21.5,00.0,31.3,24.3,08.7,-000.7,0020.71,0016.89,0016.71
2023-01-04 16:09:00,,0822.1,5.01,0.00,22.6,21.4,00.0,31.3,24.3,09.1,-001.0,0020.63,0016.51,0016.27
2023-01-04 16:10:00,,0822.1,4.99,0.00,22.6,21.3,00.0,31.3,24.2,09.4,-001.1,0020.99,0016.18,0015.96
2023-01-04 16:11:00,,0822.1,4.99,0.00,22.5,21.2,00.0,31.3,24.2,09.2,-001.2,0020.11,0015.58,0015.36
2023-01-04 16:12:00,,0822.1,5.00,0.00,22.5,21.2,00.0,31.3,24.2,08.7,-001.4,0019.18,0014.70,0014.48
2023-01-04 16:13:00,,0822.1,4.99,0.00,22.5,21.1,00.0,31.3,24.1,09.2,-001.3,0018.65,0014.24,0014.02
2023-01-04 16:14:00,,0822.1,4.99,0.00,22.5,21.1,00.0,31.3,24.1,09.4,-001.3,0018.34,0013.89,0013.67
2023-01-04 16:15:00,,0822.1,5.00,0.00,22.4,21.1,00.0,31.3,24.1,09.4,-001.3,0018.30,0013.81,0013.54
2023-01-04 16:16:00,,0822.1,4.99,0.00,22.4,21.0,00.0,31.3,24.1,09.3,-001.1,0018.49,0013.97,0013.68
2023-01-04 16:17:00,,0822.1,4.97,0.00,22.4,21.0,00.0,31.3,24.1,09.4,-000.9,0018.55,0014.04,0013.75
2023-01-04 16:18:00,,0822.3,4.99,0.00,22.4,21.0,00.0,31.3,24.1,09.5,-000.9,0018.51,0014.00,0013.73
2023-01-04 16:19:00,,0822.3,5.00,0.00,22.4,21.0,00.0,31.2,24.1,09.6,-001.0,0018.68,0014.16,0013.86
2023-01-04 16:20:00,,0822.3,4.99,0.00,22.4,21.0,00.0,31.2,24.0,09.5,-001.1,0019.29,0014.71,0014.41
2023-01-04 16:21:00,,0822.3,5.00,0.00,22.4,21.0,00.0,31.2,24.0,09.5,-001.0,0019.67,0015.19,0014.90
2023-01-04 16:22:00,,0822.4,5.00,0.00,22.4,21.0,00.0,31.2,24.0,09.5,-001.0,0019.10,0015.30,0015.04
2023-01-04 16:23:00,,0822.4,5.00,0.00,22.4,21.0,00.0,31.2,24.0,09.5,-001.2,0018.78,0015.56,0015.29
2023-01-04 16:24:00,,0822.4,4.99,0.00,22.3,21.0,00.0,31.2,24.0,09.4,-001.2,0019.39,0016.15,0015.86
2023-01-04 16:25:00,,0822.4,4.99,0.00,22.3,21.0,00.0,31.2,24.0,09.3,-000.8,0019.93,0016.62,0016.33
2023-01-04 16:26:00,,0822.4,5.00,0.00,22.3,20.9,00.0,31.2,24.0,09.3,-000.9,0020.07,0016.76,0016.47
2023-01-04 16:27:00,,0822.5,4.97,0.00,22.3,20.9,00.0,31.2,24.0,09.3,-001.1,0020.17,0016.89,0016.63
2023-01-04 16:28:00,,0822.4,5.01,0.00,22.3,20.9,00.0,31.2,24.0,09.3,-001.3,0020.24,0016.95,0016.70
2023-01-04 16:29:00,,0822.4,5.01,0.00,22.3,20.8,00.0,31.1,24.0,09.3,-001.5,0020.16,0016.84,0016.59
2023-01-04 16:30:00,,0822.4,5.02,0.00,22.3,20.8,00.0,31.1,24.0,09.3,-001.7,0020.09,0016.67,0016.44
2023-01-04 16:31:00,,0822.5,5.00,0.00,22.2,20.8,00.0,31.1,23.9,09.0,-001.7,0019.61,0016.24,0016.03
2023-01-04 16:32:00,,0822.6,5.00,0.00,22.2,20.8,00.0,31.1,23.9,09.0,-001.7,0019.21,0015.82,0015.59
2023-01-04 16:33:00,,0822.6,5.01,0.00,22.3,21.7,00.0,31.1,24.1,09.1,-001.8,0018.93,0015.52,0015.28
2023-01-04 16:34:00,,0822.6,4.99,0.00,22.4,22.8,00.0,31.1,24.4,09.0,-001.6,0018.91,0015.19,0014.96
2023-01-04 16:35:00,,0822.6,4.99,0.00,22.5,22.9,00.0,31.1,24.5,08.9,-001.8,0018.87,0014.81,0014.57
2023-01-04 16:36:00,,0822.7,5.00,0.00,22.6,22.5,00.0,31.2,24.5,09.0,-002.3,0018.62,0014.54,0014.31
2023-01-04 16:37:00,,0822.7,5.01,0.00,22.6,22.1,00.0,31.2,24.4,09.0,-002.3,0018.66,0014.34,0014.12
2023-01-04 16:38:00,,0822.7,5.00,0.00,22.6,21.8,00.0,31.2,24.3,09.0,-002.2,0018.67,0014.18,0013.96
2023-01-04 16:39:00,,0822.7,5.00,0.00,22.5,21.6,00.0,31.2,24.3,09.0,-002.4,0018.39,0013.94,0013.73
2023-01-04 16:40:00,,0822.7,5.00,0.00,22.5,21.5,00.0,31.3,24.3,09.0,-002.7,0018.16,0013.71,0013.51
2023-01-04 16:41:00,,0822.8,5.00,0.00,22.6,21.5,00.0,31.3,24.3,08.9,-002.4,0017.84,0013.50,0013.28
2023-01-04 16:42:00,,0822.8,5.00,0.00,22.6,21.5,00.0,31.3,24.3,09.0,-002.5,0017.96,0013.60,0013.36
2023-01-04 16:43:00,,0822.8,5.01,0.00,22.6,21.4,00.0,31.3,24.3,09.1,-002.5,0018.25,0013.86,0013.62
2023-01-04 16:44:00,,0822.8,5.01,0.00,22.6,21.4,00.0,31.3,24.3,09.1,-002.6,0018.28,0013.91,0013.70
2023-01-04 16:45:00,,0822.8,5.00,0.00,22.6,21.4,00.0,31.3,24.3,09.1,-002.5,0017.99,0013.88,0013.69
2023-01-04 16:46:00,,0822.8,5.01,0.00,22.5,21.3,00.0,31.3,24.2,09.2,-002.5,0017.84,0014.09,0013.89
2023-01-04 16:47:00,,0822.8,4.99,0.00,22.5,21.3,00.0,31.3,24.2,09.2,-002.1,0018.38,0014.23,0014.03
2023-01-04 16:48:00,,0822.8,5.00,0.00,22.5,21.3,00.0,31.3,24.2,09.2,-002.1,0018.64,0014.23,0014.04
2023-01-04 16:49:00,,0822.9,5.00,0.00,22.5,21.2,00.0,31.3,24.2,09.2,-002.2,0018.32,0014.19,0014.00
2023-01-04 16:50:00,,0823.0,5.00,0.00,22.5,21.2,00.0,31.3,24.2,09.2,-002.1,0018.37,0014.21,0014.01
2023-01-04 16:51:00,,0823.0,5.00,0.00,22.5,21.2,00.0,31.3,24.2,09.2,-002.1,0018.38,0014.25,0014.06
2023-01-04 16:52:00,,0823.0,5.00,0.00,22.5,21.2,00.0,31.3,24.2,09.1,-001.9,0018.33,0014.23,0014.03
2023-01-04 16:53:00,,0823.1,5.00,0.00,22.5,21.3,00.0,31.3,24.2,09.1,-001.8,0018.15,0014.08,0013.91
2023-01-04 16:54:00,,0823.1,4.99,0.00,22.5,21.3,00.0,31.3,24.2,09.1,-001.7,0017.94,0013.86,0013.67
2023-01-04 16:55:00,,0823.0,5.00,0.00,22.5,21.3,00.0,31.3,24.2,09.1,-001.4,0017.77,0013.68,0013.47
2023-01-04 16:56:00,,0823.0,5.00,0.00,22.5,21.3,00.0,31.3,24.2,09.2,-001.5,0017.71,0013.54,0013.33
2023-01-04 16:57:00,,0822.9,5.00,0.00,22.5,21.3,00.0,31.3,24.2,09.2,-001.4,0017.54,0013.32,0013.09
2023-01-04 16:58:00,,0823.0,5.00,0.00,22.5,21.3,00.0,31.3,24.3,09.2,-001.9,0016.79,0013.06,0012.84
2023-01-04 16:59:00,,0823.0,5.00,0.00,22.5,21.3,00.0,31.3,24.3,09.2,-001.8,0016.22,0012.88,0012.65
